Location: Losili
(4.4086°N, 32.7049°E)
Time: 12:34:37
(UTC+00:00)

USA 32 - Pass Details

Date: 18 September 2019
Orbit: 777 x 783 km, 85.0° (Epoch: 18 October)

Event Time Altitude Azimuth Distance (km) Brightness Sun altitude
Rises 16:18:49 0° 12° (NNE) 3,247 7.1 -8.7°
Reaches altitude 10° 16:21:18 10° 20° (NNE) 2,322 6.3 -9.3°
Maximum altitude 16:26:09 40° 88° (E) 1,139 4.4 -10.5°
Drops below altitude 10° 16:31:01 10° 157° (SSE) 2,332 6.3 -11.7°
Sets 16:33:30 0° 164° (SSE) 3,262 7.1 -12.3°
